Location: Canyon City
(32.5951°N, 116.5278°W)
Time: 00:12:31
(UTC+00:00)

OAO 3 Rocket - Pass Details

Date: 13 December 2024
Orbit: 618 x 666 km, 35.0° (Epoch: 19 January)

Event Time Altitude Azimuth Distance (km) Brightness Sun altitude
Exits shadow 14:09:51 - 284° (WNW) 2,230 5.2 -6.5°
Reaches altitude 10° 14:10:24 10° 284° (WNW) 2,023 5.0 -6.4°
Maximum altitude 14:15:07 89° 9° (N) 634 3.1 -5.5°
Drops below altitude 10° 14:19:45 10° 105° (ESE) 1,989 7.5 -4.6°
Sets 14:22:04 0° 105° (ESE) 2,888 8.8 -4.2°
